Regional Weather Roundup
Issued by NWS Grand Forks, ND

Home | Current Version | Previous Version | Graphics & Text | Print | Product List | Glossary On
Versions: 1 2 3 4 5 6 7 8 9 10 11 12 13 14 15 16 17 18 19 20 21 22 23 24 25 26 27 28 29 30 31 32 33 34 35 36 37 38 39 40 41 42 43 44 45 46 47 48 49 50
000
ASUS43 KFGF 200931
RWRFGF
PRAIRIE TO PINES  WEATHER ROUNDUP
NATIONAL WEATHER SERVICE EASTERN NORTH DAKOTA/GRAND FORKS ND
400 AM CDT WED SEP 20 2017

 **SATELLITE DATA USED TO AUGMENT SKY COVER AT AUTOMATED STATIONS**
 *****  WEATHER ACROSS EASTERN NORTH DAKOTA  *****

CITY           SKY/WX    TMP DP  RH WIND       PRES   REMARKS
GRAND FORKS    CLOUDY    59  57  93 W14G22    29.48R
GRAND FRKS AFB CLOUDY    58  54  88 W14G25    29.48R
DEVILS LAKE    MOCLDY    52  50  93 W15       29.53R
FARGO          CLOUDY    60  58  92 W20       29.53R
WAHPETON ARPT  PTSUNNY   59  55  88 W18       29.59R
$$

 ***** WEATHER ACROSS CENTRAL AND WESTERN NORTH DAKOTA  *****

CITY           SKY/WX    TMP DP  RH WIND       PRES   REMARKS
BISMARCK       FAIR      48  43  82 W12       29.64R
MINOT          FAIR      50  45  83 SW10      29.54F
JAMESTOWN      FAIR      52  46  80 W9        29.57R
MINOT AFB      FAIR      48  45  89 W10       29.52F
GARRISON         N/A     44  41  89 W10       29.57F
WILLISTON      FAIR      41  37  86 SW6       29.58F
DICKINSON      FAIR      41  39  93 W10       29.63R
HETTINGER      FAIR      40  36  86 NW6       29.69S
$$

 *****  OTHER AIRPORT OBSERVATIONS IN OUR AREA  *****

CITY           SKY/WX    TMP DP  RH WIND       PRES   REMARKS
WALHALLA       FAIR     N/A N/A N/A W12G17    29.44R
GRAFTON AIRPOR CLOUDY    59  57  94 W16G22    29.48R
VALLEY CITY AR FAIR      52  52 100 W13       29.57F
CANDO          FAIR      50  50 100 W13G20    29.53R
CAVALIER APRT  PTSUNNY   57  55  94 W14G20    29.44R
GWINNER        SUNNY     55  54  94 W8        29.59S
SHEYENNE NWR     N/A     58  57  96 W14       29.95
ROLLA          CLOUDY    50  50 100 W16G24    29.50R
 ***** THE ABOVE OBSERVATIONS ARE NON NWS ARE NOT QUALITY
       CONTROLLED AND MAY MIS-REPORT RAIN FOR SNOW...
$$

  *****  WEATHER ACROSS NORTHERN MINNESOTA  *****

CITY           SKY/WX    TMP DP  RH WIND       PRES   REMARKS
FLAG ISLAND    FAIR      61  59  94 S9        29.40R
WARROAD        MOCLDY    61  55  82 S7        29.44R
ROSEAU         FAIR      61  55  82 S10       29.42R
HALLOCK        DRIZZLE   61  57  88 W17G26    29.43R
THF RVR FALLS  CLOUDY    61  61 100 SW8       29.47R
BAUDETTE       NOT AVBL
WASKISH        MOCLDY    61  61 100 S7        29.51R
CROOKSTON      CLOUDY   N/A N/A N/A CALM      29.48R
STEPHEN NDAWN    N/A    N/A N/A N/A SW7         N/A
GREENBUSH NDAW   N/A    N/A N/A N/A SE6         N/A
$$
  *****  WEATHER ACROSS CENTRAL AND WEST MINNESOTA  *****

CITY           SKY/WX    TMP DP  RH WIND       PRES   REMARKS
FOSSTON        MOCLDY    59  57  94 SE13      29.45F
BEMIDJI        RAIN      60  59  99 SE9       29.51S
PARK RAPIDS    CLOUDY    63  61  93 SE13      29.51F
ELBOW LAKE     FAIR      60  60 100 SW8       29.56R
WADENA         FAIR      61  61 100 S6        29.52S
DETROIT LAKES  CLOUDY    63  61  94 SE6       29.50F FOG
MOORHEAD       CLOUDY    61  55  82 W22G29    29.55R
FERGUS FALLS   MOCLDY    61  61 100 W13G20    29.55R FOG
MORRIS MN      FAIR      61  61 100 W7        29.56R FOG
STAPLES        FAIR      57  57 100 S5        29.54F
$$
  *****  WEATHER ELSEWHERE ACROSS MINNESOTA  *****

CITY           SKY/WX    TMP DP  RH WIND       PRES   REMARKS
DULUTH         TSTM      60  60 100 SE17      29.67F FOG
INTRNTL FALLS  MOCLDY    61  59  93 E12       29.43F
ELY            TSTM      61  57  88 S16G23    29.71R
CLOQUET        CLOUDY    59  57  94 SE8       29.65F
WHEATON        MOCLDY    61  55  82 W10G18    29.62R
BRAINERD       MOCLDY    60  59  96 S8        29.58R
HIBBING        LGT RAIN  61  60  97 SE15      29.56F
ALEXANDRIA     FAIR      59  59 100 S3        29.55F
SAINT CLOUD    MOCLDY    62  62 100 CALM      29.59R
MINNEAPOLIS    CLOUDY    72  68  87 S13       29.62S
$$

  *****  WEATHER ACROSS SOUTH DAKOTA  *****

CITY           SKY/WX    TMP DP  RH WIND       PRES   REMARKS
SIOUX FALLS    CLOUDY    63  61  93 W5        29.68R
BROOKINGS      CLOUDY    59  54  83 W10       29.66R
WATERTOWN      MOCLDY    57  55  93 W18G28    29.65R
HURON          FAIR      53  50  89 W9        29.70R
SISSETON         N/A     61  57  87 W13       29.60R
ABERDEEN       FAIR      54  50  86 W10       29.64S
MITCHELL       FAIR      57  53  86 NW10      29.72R
PIERRE         FAIR      51  44  77 N8        29.73R
MOBRIDGE       FAIR      48  44  86 NW8       29.67R
RAPID CITY     NOT AVBL
$$

  *****  SOME WEATHER IN NEARBY STATES *****

CITY           SKY/WX    TMP DP  RH WIND       PRES   REMARKS
GLASGOW MT     FAIR      44  35  70 NW5       29.57S
GREAT FALLS MT FAIR      43  27  53 S14G26    29.62R
CHEYENNE WY    FAIR      45  26  47 W20G31    29.92F
SCOTTSBLUFF NE FAIR      53  30  41 W13       29.87S
OMAHA NE       MOCLDY    75  69  81 SE8       29.64R
DES MOINES IA  MOCLDY    76  68  76 S13       29.67F
DAVENPORT IA   FAIR      67  63  87 SE8       29.85S
CHICAGO IL     FAIR      64  62  93 SE3       29.91R FOG
EAU CLAIRE WI  FAIR      67  62  84 SE15G28   29.70F
LA CROSSE WI   MOCLDY    72  64  76 S16       29.74F
$$

  *****  SOME NATIONAL WEATHER *****

CITY           SKY/WX    TMP DP  RH WIND       PRES   REMARKS
LA GUARDIA NY  MOCLDY    72  65  78 N13       29.81R
RALEIGH NC     FAIR      64  64 100 CALM      29.97R
ATLANTA GA     FAIR      70  67  90 NW6       30.01R
NEW ORLEANS LA FAIR      75  74  96 CALM      29.96S
OKLAHOMA CITY  FAIR      71  61  70 S13       29.78F
ALBUQUERQUE NM FAIR      68  36  30 SW12      30.02S
SALT LAKE CITY FAIR      50  38  63 SE6       29.94S
LOS ANGELES CA FAIR      65  61  87 CALM      29.88S
BOISE ID       MOCLDY    49  40  71 E13       29.82F
SEATTLE WA     MOCLDY    52  46  80 E6        29.66F
$$

*** WEATHER ACROSS MANITOBA...SASKATCHEWAN AND ONTARIO ***
                ***ONTARIO***

CITY           SKY/WX    TMP DP  RH WIND       PRES   REMARKS
GERALDTON      CLEAR     48  48 100 E2        29.93F
THUNDER BAY    PTCLDY    57  55  94 NE12      29.81F
SIOUX LOOKOUT  TSTM      59  54  82 SE9G17    29.62F
TORONTO        CLEAR     66  61  82 NE5       30.01R
BIG TROUT LK   CLOUDY    52  46  82 SE10G20   29.86F
PICKLE LAKE    NOT AVBL
DRYDEN         RAIN      59  57  94 SE16G23   29.60F
KENORA         LGT RAIN  61  59  94 SE12G22   29.40F
$$
                *** MANITOBA***

CITY           SKY/WX    TMP DP  RH WIND       PRES   REMARKS
BRANDON        LGT RAIN  50  48  93 W16G22    29.43R
DAUPHIN        LGT RAIN  52  48  87 W15G25    29.35S
ISLAND LAKE    NOT AVBL
PILOT MOUND      N/A     52  48  87 W10         N/A
THE PAS        RAIN      55  54  94 E9G18     29.23F FOG
THOMPSON       CLOUDY    50  41  71 E13G26    29.60F
WINNIPEG       CLOUDY    61  61 100 SW12      29.33F
LYNN LAKE      LGT RAIN  45  43  93 E20G35    29.60F
CHURCHILL      CLOUDY    41  37  87 E10       30.05F
GILLAM         CLOUDY    45  37  76 E9G18     29.84F
$$
                ***SASKATCHEWAN***

CITY           SKY/WX    TMP DP  RH WIND       PRES   REMARKS
ESTEVAN        PTCLDY    46  41  81 SW8       29.53S
KINDERSLEY     CLEAR     36  32  87 E9        29.44F
LLOYDMINSTER   CLEAR     32  30  93 W8        29.37F WCI  25
PRINCE ALBERT  CLOUDY    45  41  87 W15G23    29.34F
REGINA         CLOUDY    41  37  87 SW6       29.48F
YORKTON        MOCLDY    48  43  81 SW12G17   29.38F
N. BATTLEFORD  CLEAR     32  30  93 W7        29.42F
LA RONGE       LGT RAIN  48  48 100 NE20G29   29.30F
SASKATOON      MOCLDY    36  36 100 SW9       29.42F
SWIFT CURRENT  CLEAR     34  27  75 SW12      29.47F
$$
NOTE: THESE ARE AUTOMATED STATIONS WITH LIMITED QUALITY CONTROL
      "FAIR" INDICATES FEW OR NO CLOUDS BELOW 12,000 FEET WITH NO
      SIGNIFICANT WEATHER AND/OR OBSTRUCTIONS TO VISIBILITY.
      SKY/WX - SKY CONDITION AND SIGNIFICANT WEATHER.
      TMP - AIR TEMPERATURE.    DP   - DEWPOINT TEMPERATURE.
      RH  - RELATIVE HUMIDITY.  PRES - PRESSURE.
      HX  - HEAT INDEX.         WCI  - WIND CHILL INDEX.
$




USA.gov is the U.S. government's official web portal to all federal, state and local government web resources and services.